Spring Mountain Youth Camp, Nevada Weather observations

Data are for 60 minute period ending at time listed.
 Day   Time   Solar   Ave.   Ave.  Ave.  Vector  Max.   Baro.   Total    
  of    of     Rad.   Air    Rel.  Wind   Wind   Wind  Press.  Precip.   
Year   Day            Temp.  Hum.  Speed  Dir.   Gust                    
2016   (PST)  Kw/m2    F      %     mph   deg.    mph    mb.     in.     
-------------------------------------------------------------------------
 238    0:00   0.00  99999.0   99999    6.8   99999   99999.0   99999.0   99999.00 
 238    1:00   0.00  99999.0   99999    6.6   99999   99999.0   99999.0   99999.00 
 238    2:00   0.00  99999.0   99999    8.1   99999   99999.0   99999.0   99999.00 
 238    3:00   0.00  99999.0   99999    8.6   99999   99999.0   99999.0   99999.00 
 238    4:00   0.00  99999.0   99999    9.0   99999   99999.0   99999.0   99999.00 
 238    5:00   0.00  99999.0   99999    8.3   99999   99999.0   99999.0   99999.00 
 238    6:00   0.01  99999.0   99999   10.2   99999   99999.0   99999.0   99999.00 
 238    7:00   0.10  99999.0   99999   13.7   99999   99999.0   99999.0   99999.00 
 238    8:00   0.35  99999.0   99999   15.6   99999   99999.0   99999.0   99999.00 
 238    9:00   0.62  99999.0   99999   15.8   99999   99999.0   99999.0   99999.00 
 238   10:00   0.79  99999.0   99999   16.9   99999   99999.0   99999.0   99999.00 
 238   11:00   0.90  99999.0   99999   17.7   99999   99999.0   99999.0   99999.00 
 238   12:00   0.95  99999.0   99999   14.8   99999   99999.0   99999.0   99999.00 
 238   13:00   0.95  99999.0   99999   12.9   99999   99999.0   99999.0   99999.00 
 238   14:00   0.89  99999.0   99999   15.5   99999   99999.0   99999.0   99999.00 
 238   15:00   0.75  99999.0   99999   15.5   99999   99999.0   99999.0   99999.00 
 238   16:00   0.56  99999.0   99999   11.2   99999   99999.0   99999.0   99999.00 
 238   17:00   0.34  99999.0   99999    8.2   99999   99999.0   99999.0   99999.00 
 238   18:00   0.12  99999.0   99999    7.9   99999   99999.0   99999.0   99999.00 
 238   19:00   0.01  99999.0   99999    8.2   99999   99999.0   99999.0   99999.00 
 238   20:00   0.00  99999.0   99999    7.6   99999   99999.0   99999.0   99999.00 
 238   21:00   0.00  99999.0   99999    5.7   99999   99999.0   99999.0   99999.00 
 238   22:00   0.00  99999.0   99999    3.6   99999   99999.0   99999.0   99999.00 
 238   23:00   0.00  99999.0   99999    2.1   99999   99999.0   99999.0   99999.00 

Return to Spring Mountain Youth Camp graphs page.


Western Regional Climate Center,wrcc@dri.edu